Olivia, MN

1:33 AM CDT on June 29, 2017 (GMT -0500)
Olivia Regional

Weather History for KOVL - October, 2012

Change the Weather History Date:

Tuesday, October 30, 2012

  Actual Average (KRWF) Record (KRWF)
Temperature  
Mean Temperature 40 °F -  
Max Temperature 48 °F 52 °F 86 °F (1950)
Min Temperature 33 °F 34 °F 16 °F (1988)
Degree Days  
Heating Degree Days 24    
Moisture  
Dew Point 29 °F    
Average Humidity 68    
Maximum Humidity 87    
Minimum Humidity 50    
Precipitation  
Precipitation 0.00 in - - ()
Sea Level Pressure  
Sea Level Pressure 30.14 in    
Wind  
Wind Speed 7 mph (East)    
Max Wind Speed 13 mph    
Max Gust Speed 16 mph    
Visibility 10 miles    
Events      
Averages and records for this station are not official NWS values.
T = Trace of Precipitation, MM = Missing Value Source: NWS Daily Summary

Daily Weather History Graph

Daily Weather History Graph

Search for Another Location

Airport or City:

Trip Planner

Search our weather history database for the weather conditions in past years. The results will help you decide how hot, cold, wet, or windy it might be!

Date:

Astronomy

Oct. 30, 2012 Rise Set
Actual Time 7:56 AM CDT 6:10 PM CDT
Civil Twilight 7:25 AM CDT 6:41 PM CDT
Nautical Twilight 6:51 AM CDT 7:15 PM CDT
Astronomical Twilight 6:17 AM CDT 7:49 PM CDT
Moon 6:37 PM CDT (10/30) 8:46 AM CDT (10/30)
Length of Visible Light 11h 15m
Length of Day
10h 14m
Full, 99% of the Moon is Illuminated
Oct 30
Full
Nov 6
Last Quarter
Nov 13
New
Nov 20
First Quarter
Nov 28
Full

Hourly Weather History & Observations

Time (CDT) Temp. Windchill Dew Point Humidity Pressure Visibility Wind Dir Wind Speed Gust Speed Precip Events Conditions
12:11 AM 35.6 °F 29.2 °F 28.4 °F 75% 30.18 in 10.0 mi ESE 8.1 mph - N/A   Clear
12:31 AM 33.8 °F 27.0 °F 28.4 °F 81% 30.18 in 10.0 mi ESE 8.1 mph - N/A   Clear
12:51 AM 33.8 °F 28.6 °F 28.4 °F 81% 30.19 in 10.0 mi ESE 5.8 mph - N/A   Clear
1:10 AM 33.8 °F 28.6 °F 28.4 °F 81% 30.19 in 10.0 mi East 5.8 mph - N/A   Clear
1:31 AM 33.8 °F 27.7 °F 28.4 °F 81% 30.19 in 10.0 mi East 6.9 mph - N/A   Clear
1:51 AM 33.8 °F 27.7 °F 28.4 °F 81% 30.19 in 10.0 mi ESE 6.9 mph - N/A   Clear
2:31 AM 33.8 °F 27.7 °F 28.4 °F 81% 30.18 in 10.0 mi ESE 6.9 mph - N/A   Clear
2:51 AM 33.8 °F 26.4 °F 28.4 °F 81% 30.18 in 10.0 mi East 9.2 mph - N/A   Clear
3:11 AM 33.8 °F 26.4 °F 28.4 °F 81% 30.19 in 10.0 mi East 9.2 mph - N/A   Clear
3:51 AM 33.8 °F 28.6 °F 28.4 °F 81% 30.19 in 10.0 mi East 5.8 mph - N/A   Clear
4:11 AM 33.8 °F 27.7 °F 28.4 °F 81% 30.19 in 10.0 mi East 6.9 mph - N/A   Clear
4:30 AM 33.8 °F 27.0 °F 28.4 °F 81% 30.18 in 10.0 mi East 8.1 mph - N/A   Clear
4:51 AM 33.8 °F 26.4 °F 26.6 °F 75% 30.18 in 10.0 mi East 9.2 mph - N/A   Clear
5:10 AM 33.8 °F 27.7 °F 26.6 °F 75% 30.18 in 10.0 mi East 6.9 mph - N/A   Clear
5:31 AM 33.8 °F 27.7 °F 26.6 °F 75% 30.18 in 10.0 mi East 6.9 mph - N/A   Clear
5:51 AM 33.8 °F 27.7 °F 26.6 °F 75% 30.18 in 10.0 mi East 6.9 mph - N/A   Clear
6:11 AM 33.8 °F 27.7 °F 26.6 °F 75% 30.18 in 10.0 mi East 6.9 mph - N/A   Clear
6:31 AM 33.8 °F 27.7 °F 26.6 °F 75% 30.18 in 10.0 mi East 6.9 mph - N/A   Clear
7:10 AM 33.8 °F 29.6 °F 26.6 °F 75% 30.18 in 10.0 mi East 4.6 mph - N/A   Clear
7:31 AM 33.8 °F 29.6 °F 26.6 °F 75% 30.18 in 10.0 mi East 4.6 mph - N/A   Clear
7:50 AM 33.8 °F 28.6 °F 26.6 °F 75% 30.18 in 10.0 mi East 5.8 mph - N/A   Clear
8:11 AM 33.8 °F 29.6 °F 24.8 °F 70% 30.18 in 10.0 mi East 4.6 mph - N/A   Clear
8:31 AM 35.6 °F 31.7 °F 26.6 °F 70% 30.18 in 10.0 mi East 4.6 mph - N/A   Clear
8:50 AM 35.6 °F 31.7 °F 26.6 °F 70% 30.18 in 10.0 mi East 4.6 mph - N/A   Scattered Clouds
9:11 AM 35.6 °F 30.7 °F 26.6 °F 70% 30.18 in 10.0 mi East 5.8 mph - N/A   Scattered Clouds
9:30 AM 35.6 °F 30.7 °F 26.6 °F 70% 30.18 in 10.0 mi East 5.8 mph - N/A   Mostly Cloudy
9:51 AM 35.6 °F 30.7 °F 26.6 °F 70% 30.17 in 10.0 mi East 5.8 mph - N/A   Overcast
10:10 AM 35.6 °F 29.2 °F 26.6 °F 70% 30.18 in 10.0 mi East 8.1 mph - N/A   Overcast
10:31 AM 35.6 °F 28.6 °F 28.4 °F 75% 30.17 in 10.0 mi East 9.2 mph - N/A   Overcast
10:51 AM 37.4 °F 31.4 °F 28.4 °F 70% 30.17 in 10.0 mi East 8.1 mph - N/A   Overcast
11:10 AM 39.2 °F 32.0 °F 28.4 °F 65% 30.17 in 10.0 mi East 11.5 mph - N/A   Overcast
11:31 AM 39.2 °F 34.2 °F 28.4 °F 65% 30.17 in 10.0 mi East 6.9 mph - N/A   Overcast
11:51 AM 41.0 °F 35.2 °F 28.4 °F 61% 30.17 in 10.0 mi East 9.2 mph - N/A   Overcast
12:11 PM 41.0 °F 33.9 °F 28.4 °F 61% 30.17 in 10.0 mi ESE 12.7 mph 16.1 mph N/A   Overcast
12:31 PM 42.8 °F 37.5 °F 28.4 °F 57% 30.16 in 10.0 mi ESE 9.2 mph - N/A   Overcast
12:51 PM 42.8 °F 37.0 °F 28.4 °F 57% 30.16 in 10.0 mi ESE 10.4 mph - N/A   Overcast
1:11 PM 42.8 °F 37.5 °F 28.4 °F 57% 30.15 in 10.0 mi ESE 9.2 mph - N/A   Overcast
1:31 PM 42.8 °F 38.6 °F 28.4 °F 57% 30.14 in 10.0 mi ESE 6.9 mph - N/A   Overcast
1:51 PM 42.8 °F 38.0 °F 28.4 °F 57% 30.14 in 10.0 mi East 8.1 mph - N/A   Overcast
2:11 PM 44.6 °F 41.4 °F 30.2 °F 57% 30.13 in 10.0 mi ESE 5.8 mph - N/A   Overcast
2:31 PM 46.4 °F 42.9 °F 30.2 °F 53% 30.12 in 10.0 mi SE 6.9 mph - N/A   Mostly Cloudy
2:51 PM 46.4 °F 44.3 °F 30.2 °F 53% 30.12 in 10.0 mi ESE 4.6 mph - N/A   Overcast
3:11 PM 46.4 °F 45.2 °F 28.4 °F 50% 30.11 in 10.0 mi East 3.5 mph - N/A   Overcast
3:31 PM 48.2 °F - 30.2 °F 50% 30.11 in 10.0 mi East 4.6 mph - N/A   Overcast
3:50 PM 46.4 °F 45.2 °F 28.4 °F 50% 30.11 in 10.0 mi East 3.5 mph - N/A   Overcast
4:11 PM 46.4 °F - 28.4 °F 50% 30.11 in 10.0 mi Calm Calm - N/A   Overcast
4:31 PM 46.4 °F 45.2 °F 28.4 °F 50% 30.10 in 10.0 mi NE 3.5 mph - N/A   Overcast
4:51 PM 46.4 °F 45.2 °F 28.4 °F 50% 30.11 in 10.0 mi North 3.5 mph - N/A   Overcast
5:10 PM 46.4 °F 45.2 °F 28.4 °F 50% 30.10 in 10.0 mi North 3.5 mph - N/A   Overcast
5:31 PM 46.4 °F 44.3 °F 30.2 °F 53% 30.10 in 10.0 mi NNE 4.6 mph - N/A   Overcast
5:51 PM 46.4 °F 44.3 °F 30.2 °F 53% 30.09 in 10.0 mi North 4.6 mph - N/A   Overcast
6:10 PM 44.6 °F 42.2 °F 30.2 °F 57% 30.09 in 10.0 mi North 4.6 mph - N/A   Overcast
6:31 PM 42.8 °F 40.1 °F 30.2 °F 61% 30.09 in 10.0 mi North 4.6 mph - N/A   Overcast
6:51 PM 42.8 °F 41.1 °F 30.2 °F 61% 30.09 in 10.0 mi NNW 3.5 mph - N/A   Overcast
7:11 PM 42.8 °F 41.1 °F 30.2 °F 61% 30.09 in 10.0 mi North 3.5 mph - N/A   Overcast
7:31 PM 41.0 °F 39.0 °F 30.2 °F 65% 30.09 in 10.0 mi North 3.5 mph - N/A   Overcast
7:51 PM 39.2 °F 35.0 °F 30.2 °F 70% 30.09 in 10.0 mi NNE 5.8 mph - N/A   Overcast
8:10 PM 41.0 °F 37.1 °F 30.2 °F 65% 30.08 in 10.0 mi NE 5.8 mph - N/A   Overcast
8:31 PM 41.0 °F 39.0 °F 32.0 °F 70% 30.08 in 10.0 mi NNE 3.5 mph - N/A   Overcast
8:51 PM 41.0 °F 39.0 °F 32.0 °F 70% 30.08 in 10.0 mi NE 3.5 mph - N/A   Overcast
9:11 PM 42.8 °F 40.1 °F 32.0 °F 66% 30.08 in 10.0 mi NNE 4.6 mph - N/A   Overcast
9:31 PM 41.0 °F 38.0 °F 32.0 °F 70% 30.08 in 10.0 mi NNE 4.6 mph - N/A   Overcast
9:51 PM 41.0 °F 39.0 °F 32.0 °F 70% 30.08 in 10.0 mi NNE 3.5 mph - N/A   Overcast
10:11 PM 41.0 °F 39.0 °F 32.0 °F 70% 30.08 in 10.0 mi NE 3.5 mph - N/A   Overcast
10:30 PM 39.2 °F 35.0 °F 32.0 °F 75% 30.07 in 10.0 mi NE 5.8 mph - N/A   Overcast
10:51 PM 39.2 °F 34.2 °F 32.0 °F 75% 30.06 in 10.0 mi ENE 6.9 mph - N/A   Mostly Cloudy
11:11 PM 37.4 °F - 32.0 °F 81% 30.07 in 10.0 mi Calm Calm - N/A   Overcast
11:31 PM 35.6 °F 31.7 °F 32.0 °F 87% 30.08 in 10.0 mi NE 4.6 mph - N/A   Mostly Cloudy
11:50 PM 35.6 °F - 30.2 °F 81% 30.08 in 10.0 mi Calm Calm - N/A   Scattered Clouds